Wind_Speed
3 3 2 4 2 3 1 3 1 4 6 1 5 5 5 3 5 3 5 7 7 15 20 17 13 14 13 14 15 17 16 16 16 14 15 14 13 13 13 12 12 12 12 14 14 13 12 12 9
2 1 4 2 3 1 3 4 5 4 2 10 6 2 2 5 2 2 3 3 11 17 19 16 13 15 14 14 16 17 17 16 14 14 13 13 13 14 14 12 12 11 12 13 14 14 11 9 8
1 3 3 3 2 4 3 4 4 3 6 2 5 1 4 3 2 2 3 7 11 17 19 17 14 14 14 15 16 17 17 16 15 14 14 14 14 14 15 14 14 15 16 15 12 9 8 8 8
1 4 3 3 4 4 5 3 2 7 2 1 2 7 5 3 4 4 2 9 11 18 18 18 16 15 15 16 15 15 16 16 15 15 14 15 15 18 19 16 15 14 12 9 9 9 9 8 8
5 2 2 1 2 3 5 4 1 5 6 4 1 5 4 3 6 3 5 9 12 17 16 16 16 16 16 17 16 16 16 16 15 16 14 15 14 17 15 14 12 12 15 14 13 10 9 7 7
3 2 3 2 3 4 5 4 2 2 2 7 2 3 4 8 6 1 3 7 9 14 16 16 15 15 16 18 17 16 16 17 17 16 16 15 14 15 13 13 16 16 14 12 10 8 7 6 7
5 3 3 3 3 3 3 4 0 2 3 2 2 3 4 8 22 4 4 6 8 15 18 18 18 16 16 17 17 17 19 17 18 16 15 16 14 13 15 16 15 13 11 10 8 6 6 5 5
4 3 2 3 2 4 3 5 2 4 4 8 2 2 4 17 19 5 7 9 8 14 17 19 18 17 17 17 17 19 19 19 17 16 16 16 16 16 15 13 12 11 9 9 7 6 5 4 4
2 3 2 3 4 2 2 6 3 2 1 4 5 1 3 18 13 6 4 7 9 10 14 16 19 21 18 18 19 19 21 22 19 17 16 16 16 17 14 12 10 9 8 7 6 4 3 3 4
3 3 6 4 2 1 5 1 4 4 6 3 4 5 16 19 18 9 7 6 7 11 12 12 14 18 17 18 19 21 21 21 20 18 18 18 16 15 14 13 10 8 7 5 4 3 4 5 6
2 4 3 2 3 0 1 3 2 3 4 5 6 6 11 15 16 12 10 8 10 11 7 13 8 10 9 9 15 19 21 22 22 21 21 17 15 14 13 12 11 8 6 6 6 7 7 7 7
1 3 3 3 0 4 3 2 4 4 6 7 6 5 5 7 10 11 16 16 15 13 10 13 16 17 18 15 14 14 21 23 25 23 22 19 17 14 13 11 9 7 6 6 6 7 8 8 8
2 2 2 5 7 6 3 5 4 5 8 9 7 5 6 5 13 16 14 14 16 16 15 13 15 21 22 12 14 10 10 16 23 22 20 19 18 16 13 11 9 7 6 5 6 8 8 9 9
2 3 6 6 5 3 4 3 3 2 8 9 7 7 7 7 11 13 18 19 17 16 16 13 11 17 20 18 20 19 20 27 24 23 22 18 17 15 14 12 9 8 7 6 7 9 10 10 9
3 5 6 2 3 2 2 2 4 9 10 9 11 8 8 10 16 16 18 19 17 17 15 13 13 12 15 16 18 21 23 22 22 21 17 17 15 14 13 12 10 8 7 7 8 10 11 10 10
3 4 3 4 5 3 1 5 7 12 6 9 10 11 9 10 14 18 21 21 17 14 13 10 12 10 11 13 14 16 18 17 19 16 16 16 16 15 13 11 10 9 7 8 8 10 12 11 11
5 1 1 6 4 5 5 5 6 10 9 9 9 10 10 12 18 23 24 22 19 14 11 8 9 11 9 11 12 12 13 14 17 18 17 16 14 15 11 9 9 10 9 8 9 10 8 13 14
1 1 2 4 3 5 4 3 4 7 8 7 8 10 11 12 14 20 24 24 20 17 10 2 4 7 7 9 10 10 9 10 14 19 18 20 20 16 14 10 7 6 9 11 9 7 10 13 15
4 2 3 4 4 2 3 3 4 5 6 8 8 9 10 11 14 19 23 25 25 22 16 11 3 5 7 8 8 7 6 8 12 15 17 17 21 17 21 16 17 10 8 8 7 10 13 15 17
2 2 4 5 4 1 2 4 0 3 3 4 6 9 10 12 14 21 24 27 29 26 24 17 8 1 7 9 10 7 5 7 9 12 13 14 17 19 16 10 9 11 9 8 9 10 14 11 15
4 4 4 6 4 2 3 4 4 1 3 5 6 6 9 11 13 14 22 24 26 28 28 23 16 4 1 7 8 7 6 4 7 11 13 16 16 17 14 11 10 9 9 8 10 12 12 9 17
3 6 4 3 2 3 2 4 4 4 2 3 5 6 8 10 11 14 19 23 26 27 26 23 19 12 8 1 5 8 8 6 5 9 14 13 15 16 17 14 11 6 7 8 10 12 13 9 11
5 4 3 1 2 3 1 1 4 5 5 3 2 5 6 7 9 11 16 18 22 26 26 25 24 19 14 10 8 3 2 0 1 3 8 11 13 14 16 18 16 11 9 8 10 11 11 11 9
7 5 6 4 2 2 5 6 4 6 5 4 2 3 5 6 7 11 15 18 23 28 29 29 27 25 22 15 11 7 5 2 1 4 8 12 14 17 17 16 16 17 16 10 9 11 12 11 12
3 5 2 4 2 6 2 3 6 4 6 8 7 3 4 4 5 6 13 18 23 27 29 28 29 29 25 21 18 13 7 3 1 3 6 11 14 18 20 20 21 17 13 12 12 14 14 13 13
6 7 5 7 3 3 2 6 4 1 7 8 6 4 3 4 4 5 9 14 19 23 26 28 28 27 26 24 21 17 14 8 2 2 5 10 13 17 18 20 21 18 15 14 14 15 15 14 13
3 4 2 6 2 3 3 4 1 4 5 5 5 4 3 3 5 6 10 12 15 18 21 23 24 24 24 24 22 21 17 15 10 2 4 7 10 12 15 18 20 19 16 16 14 16 16 15 14
3 4 3 2 3 5 3 4 4 9 8 6 5 4 2 2 4 5 9 11 12 13 15 17 19 21 22 22 22 21 20 17 13 8 4 6 8 10 12 14 20 22 21 18 16 16 15 15 15
1 2 2 2 3 5 1 4 3 4 11 12 8 6 4 3 4 4 7 8 8 9 11 13 15 18 20 20 20 20 20 19 16 12 8 6 7 9 11 13 16 20 21 19 20 19 15 18 16
2 2 3 3 5 2 2 7 5 5 9 11 7 5 4 4 6 7 11 9 7 8 9 10 11 13 15 17 18 18 18 19 19 17 14 9 6 8 9 11 15 17 23 22 23 22 21 20 17
Wind_Direction
342 353 8 32 58 56 268 250 296 286 330 44 273 248 245 242 254 263 327 185 148 167 164 162 170 162 169 165 169 167 168 168 169 166 165 161 154 150 146 147 148 142 137 126 120 116 111 110 107
354 63 53 83 106 140 261 268 249 237 289 317 320 322 235 270 249 289 146 150 168 167 167 158 167 169 172 168 166 170 167 169 167 162 158 153 152 146 143 142 142 131 121 118 112 113 114 110 102
35 55 88 113 115 185 214 239 276 277 296 317 334 282 290 262 316 274 233 178 165 171 175 162 171 174 173 168 165 172 172 170 169 162 155 152 147 142 136 133 125 118 110 107 112 121 116 99 89
7 26 45 115 207 237 222 243 212 322 352 107 2 313 308 294 295 309 225 172 165 173 173 166 176 181 176 172 167 168 169 170 164 159 153 148 140 133 127 126 123 119 124 133 130 123 102 96 86
45 47 81 71 278 257 260 264 12 327 300 292 135 273 278 291 304 311 187 176 170 169 175 173 181 185 179 176 172 172 170 164 157 152 154 143 153 146 147 136 141 120 107 107 105 106 101 92 82
47 88 74 228 237 240 258 255 233 219 282 303 320 291 259 354 343 317 177 176 181 174 177 178 186 190 182 179 174 173 169 161 156 157 155 156 155 151 144 127 116 114 113 111 112 109 100 86 78
107 83 176 202 247 298 245 322 275 324 281 286 268 253 301 24 348 283 185 193 189 182 184 187 188 192 187 181 174 171 164 163 163 167 167 162 145 132 126 130 124 121 121 119 118 109 95 83 72
107 92 171 238 200 269 310 347 58 24 304 314 286 13 348 321 333 280 196 198 217 193 197 198 196 188 185 182 179 172 170 170 172 172 170 155 148 144 138 133 127 129 128 123 116 103 84 66 49
121 74 238 252 162 239 0 17 314 278 288 320 313 142 283 353 352 326 258 225 226 221 226 216 203 192 185 187 180 177 176 176 173 176 167 158 152 153 140 138 137 138 131 123 114 98 75 54 59
92 135 222 223 213 340 321 8 322 347 339 315 308 290 330 346 9 341 304 298 270 240 232 237 240 205 198 195 192 183 179 179 173 172 168 168 162 154 154 150 152 144 135 128 116 104 86 89 85
149 196 215 273 260 119 293 305 276 306 301 240 258 290 329 334 344 348 328 297 283 279 252 234 256 242 205 225 219 206 193 182 176 179 176 171 163 163 161 154 151 147 133 117 108 101 97 91 88
131 248 221 259 31 355 306 268 294 235 252 281 277 282 289 314 323 334 319 324 307 289 262 224 213 204 195 262 263 246 200 190 183 184 181 175 170 173 168 164 157 151 137 129 117 110 100 96 92
188 279 294 290 296 264 261 245 243 273 292 307 312 292 298 332 343 347 331 319 323 310 290 248 223 211 210 204 213 190 218 243 196 184 188 180 175 179 174 170 163 158 143 134 126 118 109 104 100
308 300 290 293 287 266 246 244 157 257 347 338 27 22 14 7 4 350 346 345 329 314 303 275 253 228 218 211 211 216 212 219 203 187 188 186 185 184 178 172 169 167 153 143 135 128 117 110 106
336 337 326 336 319 357 259 302 121 359 341 339 355 26 14 18 11 3 348 344 334 310 299 286 265 231 227 219 223 229 232 222 204 193 189 189 189 190 187 177 171 167 154 153 144 132 121 116 114
23 53 360 307 337 355 63 271 22 355 349 22 17 2 14 11 6 1 357 351 347 324 297 284 259 239 230 227 223 226 232 221 215 199 197 192 192 191 188 181 173 168 155 154 145 137 122 121 123
14 284 312 318 38 352 48 276 354 8 38 23 10 9 10 3 8 0 358 357 354 349 332 272 248 251 242 243 246 244 243 240 228 202 202 203 196 185 183 179 173 167 168 159 159 137 132 133 125
235 247 265 268 311 346 320 272 340 13 36 27 5 9 9 10 3 355 358 4 6 9 7 354 244 244 249 253 253 248 252 249 226 208 204 200 197 192 175 183 175 191 177 167 162 145 141 139 135
120 168 261 262 276 283 303 300 345 12 39 26 13 12 6 8 353 1 1 7 14 21 17 20 65 226 242 242 217 211 226 237 226 218 212 205 198 193 184 201 196 202 179 171 161 146 147 143 143
160 207 259 273 245 199 340 283 158 27 45 37 20 15 8 4 5 3 3 7 12 12 20 18 14 291 247 243 239 228 228 236 228 214 209 203 197 192 208 188 202 201 192 189 179 168 159 171 173
195 191 220 229 326 264 337 277 220 261 71 30 33 19 19 12 5 0 2 6 9 13 18 24 33 25 247 229 232 209 201 202 202 206 204 204 201 197 183 198 194 212 212 212 200 198 202 180 200
203 204 216 222 146 244 53 275 248 186 128 38 17 20 19 9 7 8 3 4 7 11 27 37 40 50 48 60 222 214 216 204 218 227 212 199 197 190 180 184 181 206 228 221 223 215 214 204 196
215 132 140 154 129 350 214 81 263 134 207 178 35 14 14 5 7 5 4 3 9 19 27 40 45 53 55 51 35 5 19 44 224 219 207 198 195 196 194 197 194 191 225 233 232 233 230 223 214
148 85 50 48 69 323 217 176 237 190 188 159 155 35 13 2 3 10 10 16 19 27 34 37 44 46 49 51 51 47 38 11 178 170 191 199 201 205 206 200 197 208 220 228 252 251 242 236 234
133 98 328 344 7 226 323 201 260 195 159 152 153 104 14 7 13 8 14 12 17 22 27 31 37 39 42 44 43 41 44 37 315 232 214 209 211 216 218 216 211 220 228 231 248 252 248 241 237
191 163 165 209 212 260 125 236 263 111 111 121 123 124 70 17 3 13 20 22 25 26 27 30 33 34 37 39 38 37 34 30 30 236 241 235 235 241 237 229 226 231 225 237 244 244 248 246 243
204 193 168 104 43 30 225 288 167 136 132 134 141 121 65 21 355 351 6 21 21 23 26 25 26 29 32 32 33 34 31 25 21 336 249 248 261 258 256 243 237 234 239 236 234 242 247 247 244
205 165 97 1 164 232 276 275 235 198 189 182 181 174 166 343 342 339 349 357 8 13 17 23 25 24 24 26 26 26 27 25 20 11 328 275 258 259 256 252 238 238 243 239 240 237 243 247 245
9 280 11 152 157 184 235 257 21 251 192 183 198 199 215 269 286 293 310 323 334 352 4 12 15 16 18 19 19 20 22 22 20 14 3 314 273 260 252 254 252 245 239 243 240 242 244 242 241
282 263 175 171 245 206 161 261 331 292 173 166 185 196 230 250 265 276 283 282 298 319 336 352 4 9 12 12 14 15 17 16 14 12 2 340 307 263 253 251 253 249 244 237 234 232 230 233 235
Height
814 813 813 813 832 838 844 834 830 824 819 815 814 810 808 806 805 811 792 791 791 794 797 800 802 804 806 807 810 812 815 817 819 822 822 825 825 826 827 830 831 831 833 833 835 836 837 838 839
814 814 814 823 839 844 842 835 828 821 816 814 807 806 808 804 795 793 792 792 794 795 799 801 803 805 806 808 811 813 815 818 821 822 824 825 827 827 828 831 833 833 834 835 836 837 838 838 840
816 815 820 828 845 845 840 829 823 819 816 814 812 805 805 801 794 793 792 792 795 795 799 801 804 805 806 808 811 814 815 817 820 824 824 826 827 828 830 831 833 834 835 836 837 838 839 839 840
818 818 828 834 841 842 833 823 822 820 813 812 813 813 803 797 796 794 793 793 795 798 800 801 804 805 806 809 812 815 817 818 820 824 825 828 828 829 831 832 834 835 836 837 838 838 839 840 841
819 826 836 840 843 837 829 824 822 823 822 815 813 812 806 795 795 795 796 795 796 798 800 802 805 805 806 809 811 814 816 818 821 824 825 827 829 830 831 833 834 835 837 838 838 839 840 841 842
827 831 841 843 841 834 826 823 820 819 818 814 815 811 804 797 797 797 797 798 799 799 801 803 806 806 806 809 810 813 816 819 821 824 825 827 830 831 832 833 835 836 837 838 839 840 841 842 843
830 837 842 843 839 832 826 822 820 820 819 815 811 812 802 799 800 798 798 798 799 798 800 803 804 806 807 809 810 813 816 820 821 824 825 828 830 832 833 835 835 837 838 839 840 841 841 842 843
830 836 842 841 839 833 825 823 820 821 819 813 812 814 810 804 800 799 798 798 799 800 801 803 804 805 807 809 811 813 816 818 820 823 827 829 830 831 834 836 837 837 839 839 840 841 842 842 843
828 840 844 838 837 829 826 826 821 819 820 817 814 812 810 805 801 802 800 800 800 802 802 803 802 804 805 808 810 812 814 816 818 822 826 829 831 832 833 836 839 838 839 839 840 841 842 842 843
833 844 839 833 830 829 829 826 825 823 822 819 813 809 807 804 803 804 804 801 801 799 800 803 803 803 806 808 810 811 813 816 817 821 824 827 829 832 833 834 838 840 839 840 840 841 841 842 843
834 837 834 829 828 829 828 826 823 822 822 815 815 811 808 806 803 803 803 801 799 799 800 801 800 804 805 809 811 812 813 815 818 820 822 826 830 832 834 835 836 839 840 840 840 841 841 842 843
833 831 831 828 827 830 827 824 824 821 817 811 811 812 810 807 804 805 803 800 799 798 799 800 800 798 803 807 809 811 813 811 814 818 820 824 828 832 834 836 837 838 839 840 840 841 841 843 843
832 830 830 829 830 829 825 824 824 821 816 813 808 809 809 808 804 803 804 799 798 797 798 797 800 799 802 803 804 810 815 811 812 816 820 824 825 830 832 835 837 838 839 840 840 841 842 843 845
835 833 833 828 825 825 824 822 821 819 819 814 808 810 811 811 809 804 802 797 795 795 796 797 799 799 800 803 804 807 809 812 814 815 820 822 825 828 831 833 835 838 838 840 841 841 841 844 846
836 836 834 826 823 821 823 819 823 829 823 819 818 816 816 813 810 807 804 799 796 794 794 794 795 797 799 800 802 804 806 808 812 815 818 823 825 828 830 830 833 838 838 840 842 842 841 844 847
839 843 838 827 827 823 822 826 828 831 826 826 825 823 819 818 815 810 806 801 796 793 792 792 793 794 796 797 799 802 804 806 809 811 817 821 824 826 829 831 832 836 838 841 842 844 842 845 848
851 843 842 836 833 832 828 827 834 834 831 833 830 826 823 820 815 812 808 803 798 793 790 789 791 793 795 797 798 801 804 807 809 811 813 818 823 825 829 831 834 835 837 839 843 843 844 846 849
842 845 845 845 834 837 836 834 838 837 836 838 835 830 826 823 821 818 812 805 800 795 791 788 789 792 794 795 798 800 803 805 808 810 811 813 820 825 828 832 834 838 836 838 841 842 845 847 848
844 844 846 845 837 837 835 838 841 841 840 839 837 834 832 827 826 821 815 809 802 797 792 790 789 791 792 794 797 800 802 805 807 809 811 811 815 819 824 829 830 833 834 836 839 841 845 849 851
844 845 847 841 838 835 836 835 840 842 842 842 839 838 836 830 825 821 817 811 806 801 795 791 789 790 792 794 797 799 801 803 806 808 810 811 817 819 824 825 832 835 833 837 839 841 846 848 849
843 845 843 838 836 836 837 836 840 842 842 842 840 840 837 834 830 825 821 817 812 806 800 796 792 792 793 794 796 798 800 803 806 808 811 814 816 820 820 828 829 835 836 837 838 841 845 845 848
837 836 837 836 840 851 839 851 835 839 843 846 846 843 840 837 834 831 827 821 816 812 807 801 797 796 795 796 797 798 799 801 804 807 810 813 816 818 820 826 827 832 836 836 839 841 843 843 845
833 834 836 835 845 847 846 860 830 842 842 843 846 845 843 841 838 835 831 828 823 817 813 808 804 799 798 797 798 799 800 802 804 806 810 812 816 818 819 822 824 827 834 836 837 839 840 841 842
836 839 849 856 856 890 848 841 819 836 832 843 845 846 845 843 840 837 834 830 826 822 816 812 808 805 801 801 801 802 802 804 805 806 809 812 815 818 819 820 821 826 827 830 833 836 838 837 840
832 842 894 889 912 866 852 848 817 824 831 835 844 845 846 845 841 838 834 831 828 825 821 817 812 809 806 804 804 803 804 805 806 807 808 811 813 816 817 818 821 824 826 826 829 833 835 836 836
834 837 873 874 884 857 844 846 813 831 835 838 841 843 843 844 843 840 837 835 831 828 825 822 818 815 812 810 808 807 806 805 805 805 807 809 810 812 814 816 818 819 823 825 825 830 833 833 834
836 843 833 883 905 884 837 824 833 837 841 842 841 841 841 842 842 840 838 836 834 831 828 826 823 821 818 815 813 810 808 807 805 804 805 806 807 809 811 813 815 817 820 822 823 826 829 831 831
831 832 849 868 874 874 849 841 812 835 840 843 843 841 840 841 841 840 838 836 835 833 830 828 825 823 821 818 816 813 811 808 806 804 803 803 804 806 807 809 812 814 816 817 818 821 824 827 829
847 850 848 840 847 868 870 828 828 827 830 837 840 840 841 841 840 839 837 836 834 832 831 829 826 824 821 819 817 815 812 809 807 805 804 802 802 802 803 805 807 809 811 813 813 817 816 826 826
842 838 840 854 849 857 855 826 835 830 827 832 837 838 840 840 839 838 836 834 833 832 831 829 826 825 823 821 818 815 813 810 808 805 803 801 800 799 799 800 803 805 808 808 811 813 815 821 821